Location: Moscow
(55.7500°N, 37.5830°E)
Time: 22:25:19
(UTC+03:00)

A-11 Canister half - Pass Details

Date: 01 December 2021
Orbit: 1516 x 1684 km, 47.2° (Epoch: 16 January)

Event Time Altitude Azimuth Distance (km) Brightness Sun altitude
Rises 15:37:55 0° 283° (WNW) 4,924 12.1 1.7°
Reaches altitude 10° 15:42:39 10° 265° (W) 3,945 12.1 1.2°
Maximum altitude 15:48:10 16° 231° (SW) 3,457 12.8 0.6°
Drops below altitude 10° 15:53:41 10° 197° (SSW) 3,936 12.3 0.1°
Sets 15:58:27 0° 178° (S) 4,907 12.3 -0.5°
